Satellite: AO-27
Catalog number: 22825
Epoch time:      06075.82256706
Element set:     353
Inclination:      098.2757 deg
RA of node:       062.2181 deg
Eccentricity:    0.0008195
Arg of perigee:   168.9532 deg
Mean anomaly:     191.1810 deg
Mean motion:   14.29165424 rev/day
Decay rate:        6.7e-07 rev/day^2
Epoch rev:           65016
Checksum:              309

Satellite: IO-26
Catalog number: 22826
Epoch time:      06074.54810046
Element set:    0045
Inclination:      098.2700 deg
RA of node:       062.2412 deg
Eccentricity:    0.0008659
Arg of perigee:   170.8571 deg
Mean anomaly:     189.2767 deg
Mean motion:   14.29408489 rev/day
Decay rate:        4.1e-07 rev/day^2
Epoch rev:           65005
Checksum:              303

Satellite: PO-28
Catalog number: 22829
Epoch time:      06073.81757345
Element set:    0327
Inclination:      098.2606 deg
RA of node:       062.7506 deg
Eccentricity:    0.0009983
Arg of perigee:   149.2907 deg
Mean anomaly:     210.8844 deg
Mean motion:   14.30098040 rev/day
Decay rate:        6.8e-07 rev/day^2
Epoch rev:           65015
Checksum:              317

Satellite: TO-31
Catalog number: 25396
Epoch time:      06074.76173191
Element set:     480
Inclination:      098.4903 deg
RA of node:       138.3555 deg
Eccentricity:    0.0003517
Arg of perigee:   104.9368 deg
Mean anomaly:     255.2202 deg
Mean motion:   14.23698617 rev/day
Decay rate:        2.6e-07 rev/day^2
Epoch rev:           39905
Checksum:              313

Satellite: GO-32
Catalog number: 25397
Epoch time:      06074.74883908
Element set:    0969
Inclination:      098.4797 deg
RA of node:       135.2970 deg
Eccentricity:    0.0002055
Arg of perigee:   113.4358 deg
Mean anomaly:     246.7034 deg
Mean motion:   14.23100250 rev/day
Decay rate:        1.0e-07 rev/day^2
Epoch rev:           39895
Checksum:              317

Satellite: UO-36
Catalog number: 25693
Epoch time:      06074.76789355
Element set:    0992
Inclination:      064.5581 deg
RA of node:       169.6376 deg
Eccentricity:    0.0007378
Arg of perigee:   333.4998 deg
Mean anomaly:     026.5729 deg
Mean motion:   14.78580545 rev/day
Decay rate:       -9.1e-07 rev/day^2
Epoch rev:           37197
Checksum:              379

Satellite: MO-46
Catalog number: 26548
Epoch time:      06075.72183103
Element set:     440
Inclination:      064.5579 deg
RA of node:       157.7263 deg
Eccentricity:    0.0051863
Arg of perigee:   259.9823 deg
Mean anomaly:     099.5438 deg
Mean motion:   14.82926302 rev/day
Decay rate:       1.23e-06 rev/day^2
Epoch rev:           29569
Checksum:              336

Satellite: NO-44
Catalog number: 26931
Epoch time:      06075.85142745
Element set:     256
Inclination:      067.0503 deg
RA of node:       245.5117 deg
Eccentricity:    0.0007118
Arg of perigee:   268.5708 deg
Mean anomaly:     091.4564 deg
Mean motion:   14.29428095 rev/day
Decay rate:      -1.47e-06 rev/day^2
Epoch rev:           23273
Checksum:              308

Satellite: SO-50
Catalog number: 27607
Epoch time:      06074.89858416
Element set:    0968
Inclination:      064.5588 deg
RA of node:       036.2566 deg
Eccentricity:    0.0054248
Arg of perigee:   177.1437 deg
Mean anomaly:     182.9990 deg
Mean motion:   14.71106668 rev/day
Decay rate:        5.2e-07 rev/day^2
Epoch rev:           17370
Checksum:              347

Satellite: AO-51
Catalog number: 28375
Epoch time:      06075.34771609
Element set:     483
Inclination:      098.1783 deg
RA of node:       131.5685 deg
Eccentricity:    0.0084387
Arg of perigee:   127.8410 deg
Mean anomaly:     233.0456 deg
Mean motion:   14.40508125 rev/day
Decay rate:        2.1e-07 rev/day^2
Epoch rev:            8979
Checksum:              319

Satellite: XO-53
Catalog number: 28894
Epoch time:      06075.68908107
Element set:     439
Inclination:      098.1761 deg
RA of node:       335.4242 deg
Eccentricity:    0.0018655
Arg of perigee:   100.4920 deg
Mean anomaly:     259.8395 deg
Mean motion:   14.59442679 rev/day
Decay rate:        4.1e-07 rev/day^2
Epoch rev:            2048
Checksum:              330

Satellite: CUTESAT
Catalog number: 28941
Epoch time:      06075.77681103
Element set:      27
Inclination:      098.1826 deg
RA of node:       086.2790 deg
Eccentricity:    0.0297818
Arg of perigee:   069.0591 deg
Mean anomaly:     294.2350 deg
Mean motion:   15.20544302 rev/day
Decay rate:     1.7388e-04 rev/day^2
Epoch rev:             348
Checksum:              315

/EX
SB KEPS @ AMSAT  $ORB06075.W
Orbital Elements  06075.WEATHER

HR AMSAT ORBITAL ELEMENTS FOR WEATHER SATELLITES
FROM WA5QGD FORT WORTH,TX March 16, 2006
Send SUBSCRIBE KEPS/UNSUBSCRIBE KEPS to majordomo@amsat.org only
BID: ORB06075.W
TO ALL RADIO AMATEURS BT

Satellite: NOAA-10
Catalog number: 16969
Epoch time:      06074.76803237
Element set:    0129
Inclination:      098.7649 deg
RA of node:       086.1866 deg
Eccentricity:    0.0013304
Arg of perigee:   064.3826 deg
Mean anomaly:     295.8723 deg
Mean motion:   14.27288231 rev/day
Decay rate:        9.9e-07 rev/day^2
Epoch rev:           01383
Checksum:              333

Satellite: NOAA-11
Catalog number: 19531
Epoch time:      06074.79657525
Element set:    0035
Inclination:      098.8295 deg
RA of node:       164.2281 deg
Eccentricity:    0.0010894
Arg of perigee:   253.8122 deg
Mean anomaly:     106.1865 deg
Mean motion:   14.14793947 rev/day
Decay rate:       2.12e-06 rev/day^2
Epoch rev:           90133
Checksum:              309

